sat.trackr.live / text

‹ back to catalog

BEIJING 1

NORAD 28890 · 2005-043A

PAYLOAD ACTIVE UNKNOWN

§ Identity

Operator
Country
PRC
Launch date
2005-10-27
Launch site
PLMSC
Launch vehicle
Mass (kg)
RCS (m²)
0.35

Purposes: earth_obs

External: N2YO · Heavens-Above · Gunter

§ Orbital elements

Epoch: 2026-09-08T23:15:29.515968Z

Period
98.39 min
Inclination
98.3022°
Eccentricity
0.0015196
Mean motion
14.63574597 rev/d
Perigee alt
670.9 km
Apogee alt
692.4 km
Semi-major
7,059.8 km
B*
6.5213e-5
RAAN
25.7028°
Arg perigee
24.3645°
Mean anomaly
335.8272°
Rev number
11,290

§ Raw data

BEIJING 11 28890U 05043A   26251.96909162  .00000290  00000+0  65213-4 0  99982 28890  98.3022  25.7028 0015196  24.3645 335.8272 14.63574597112907

JSON: /api/v1/satellites/28890 · /tle

For live sub-satellite position, see the globe view (requires WebGL).

§ Visibility from observer

Set your observer location to see the next 7 days of passes ≥ 10°. The values pass through the URL so the page stays shareable.

No JS? Fill the form by hand. The geolocation button needs JavaScript.